Regional Weather Roundup
Issued by NWS Kansas City/Pleasant Hill, MO

Home | Current Version | Previous Version | Graphics & Text | Print | Product List | Glossary Off
Versions: 1 2 3 4 5 6 7 8 9 10 11 12 13 14 15 16 17 18 19 20 21 22 23 24 25 26 27 28 29 30 31 32 33 34 35 36 37 38 39 40 41 42 43 44 45 46 47 48 49 50

000
ASUS43 KEAX 041110
RWREAX

WEATHER ROUNDUP FOR EASTERN KANSAS AND NORTHWEST MISSOURI
NATIONAL WEATHER SERVICE KANSAS CITY/PLEASANT HILL MO
600 AM CDT FRI SEP 04 2015

KSZ040-057-103>105-MOZ028-029-037-043-041200-
...KANSAS CITY METROPOLITAN AREA...

CITY           SKY/WX    TMP DP  RH WIND       PRES   REMARKS
K.C. INTL      PTCLDY    72  67  84 S9        29.93S
K.C. DOWNTOWN  PTCLDY    76  68  76 S6        29.93R
LEES SUMMIT    PTCLDY    73  67  81 S6        29.95S
OLATHE - IXD   PTCLDY    70  67  90 S6        29.95S
OLATHE - OJC   PTCLDY    70  67  90 SE3       29.94S
LAWRENCE       PTCLDY    69  67  93 E5        29.93S

$$

MOZ001>008-011>017-020>025-030>033-038>040-044>046-053-054-041200-
...NORTHERN AND CENTRAL MISSOURI...

CITY           SKY/WX    TMP DP  RH WIND       PRES   REMARKS
ST. JOSEPH     PTCLDY    71  67  87 S5        29.92S
MOSBY          MOSUNNY   70  68  94 CALM      29.94R
WARRENSBURG    CLEAR     70  66  88 SE3       29.95S
WHITEMAN AFB   CLEAR     70  67  92 S7        29.95S
CLINTON          N/A     72  70  94 CALM      29.97R
SEDALIA        PTCLDY    71  67  87 S8        29.98R
WARSAW         NOT AVBL
CHILLICOTHE      N/A     69  68  96 CALM      29.96S
KIRKSVILLE     CLEAR     68  66  93 S3        29.98S

$$

MOZ041-047>049-056>058-063>065-088>090-097-041200-
...EASTERN AND SOUTHERN MISSOURI...

CITY           SKY/WX    TMP DP  RH WIND       PRES   REMARKS
ST. LOUIS INTL PTCLDY    77  68  73 CALM      30.00R
SPIRIT OF STL  CLEAR     69  69 100 CALM      29.98R FOG
COLUMBIA       PTCLDY    71  68  90 SE6       29.98S
JEFFERSON CITY PTCLDY    69  67  93 SE3       29.97S
ROLLA          PTCLDY    70  66  87 S8        29.99S
OSAGE BEACH    CLEAR     70  64  83 S3        29.99R
SPRINGFIELD    PTCLDY    72  67  84 SE9       30.00R
BRANSON        PTCLDY    68  66  94 CALM      30.02R
JOPLIN         PTCLDY    72  66  81 S8        29.97R
WEST PLAINS    CLEAR     68  65  90 CALM      30.03S

$$

IAZ060-094-KSZ022-034>040-054-083-096-NEZ052-066-093-041200-
...KANSAS...SOUTHEAST NEBRASKA AND IOWA...

CITY           SKY/WX    TMP DP  RH WIND       PRES   REMARKS
TOPEKA         MOCLDY    74  67  78 S6        29.92R
MANHATTAN      PTCLDY    74  67  78 S6        29.90R
EMPORIA        MOCLDY    70  68  93 S12       29.92S
CHANUTE        PTCLDY    70  68  93 SE6       29.95R
WICHITA        CLEAR     71  63  75 S8        29.91R
OMAHA          PTCLDY    75  68  78 S13       29.88R
LINCOLN        MOCLDY    76  67  73 S10       29.88R
FALLS CITY     PTCLDY    72  68  87 S7        29.90R
LAMONI         CLEAR     70  67  90 S6        29.94S
DES MOINES     CLEAR     72  66  81 S7        29.92R

$$



USA.gov is the U.S. government's official web portal to all federal, state and local government web resources and services.